This is the latest recevied weather packets stored in our database for station/object KC5DAQ-24. If no packets are shown the sender has not sent any weather packets the latest 1 day(s).
| Time | Temp. | Humidity | Pressure | Rain* | Wind** | Luminosity | Snow |
|---|---|---|---|---|---|---|---|
| 1778015243 | 28.33° C | 77% | 1006.4 hPa | 0 mm | 4.02 m/s, 230° | 281 W/m² | - |
| 1778015184 | 28.33° C | 77% | 1006.3 hPa | 0 mm | 4.02 m/s, 230° | 281 W/m² | - |
| 1778015124 | 28.33° C | 77% | 1006.3 hPa | 0 mm | 4.02 m/s, 230° | 281 W/m² | - |
| 1778015064 | 28.33° C | 77% | 1006.3 hPa | 0 mm | 4.02 m/s, 230° | 281 W/m² | - |
| 1778015003 | 28.33° C | 77% | 1006.4 hPa | 0 mm | 4.02 m/s, 230° | 281 W/m² | - |
| 1778014944 | 28.33° C | 77% | 1006.4 hPa | 0 mm | 4.02 m/s, 230° | 281 W/m² | - |
| 1778014883 | 28.33° C | 77% | 1006.5 hPa | 0 mm | 3.58 m/s, 210° | 281 W/m² | - |
| 1778014823 | 28.33° C | 77% | 1006.4 hPa | 0 mm | 3.13 m/s, 224° | 278 W/m² | - |
| 1778014762 | 28.33° C | 77% | 1006.5 hPa | 0 mm | 2.68 m/s, 192° | 266 W/m² | - |
| 1778014703 | 28.33° C | 77% | 1006.5 hPa | 0 mm | 2.24 m/s, 164° | 273 W/m² | - |
| 1778014642 | 28.33° C | 77% | 1006.5 hPa | 0 mm | 2.24 m/s, 185° | 273 W/m² | - |
| 1778014583 | 28.33° C | 77% | 1006.4 hPa | 0 mm | 2.68 m/s, 220° | 320 W/m² | - |
| 1778014522 | 28.33° C | 78% | 1006.5 hPa | 0 mm | 3.13 m/s, 213° | 371 W/m² | - |
| 1778014463 | 28.33° C | 78% | 1006.5 hPa | 0 mm | 3.13 m/s, 178° | 524 W/m² | - |
| 1778014402 | 28.33° C | 78% | 1006.5 hPa | 0 mm | 3.58 m/s, 164° | 466 W/m² | - |
| 1778014342 | 28.33° C | 78% | 1006.6 hPa | 0 mm | 3.13 m/s, 199° | 466 W/m² | - |
| 1778014222 | 27.78° C | 78% | 1006.5 hPa | 0 mm | 3.13 m/s, 209° | 466 W/m² | - |
| 1778014162 | 27.78° C | 78% | 1006.6 hPa | 0 mm | 3.58 m/s, 209° | 169 W/m² | - |
| 1778014103 | 27.78° C | 78% | 1006.6 hPa | 0 mm | 2.68 m/s, 269° | 169 W/m² | - |
| 1778014044 | 27.78° C | 78% | 1006.6 hPa | 0 mm | 1.79 m/s, 188° | 169 W/m² | - |
| 1778013983 | 27.78° C | 78% | 1006.6 hPa | 0 mm | 2.24 m/s, 200° | 153 W/m² | - |
| 1778013922 | 27.78° C | 78% | 1006.6 hPa | 0 mm | 2.68 m/s, 228° | 153 W/m² | - |
| 1778013863 | 27.78° C | 78% | 1006.6 hPa | 0 mm | 3.13 m/s, 202° | 153 W/m² | - |
| 1778013802 | 27.78° C | 78% | 1006.7 hPa | 0 mm | 4.02 m/s, 223° | 158 W/m² | - |
| 1778013743 | 27.78° C | 79% | 1006.7 hPa | 0 mm | 3.58 m/s, 220° | 164 W/m² | - |
* Rain latest hour (hover to see other rain measurements)
** Current wind speed in m/s (hover to see current wind gust speed)